Regional Weather Roundup
Issued by NWS

Home | Current Version | Previous Version | Text Only | Print | Product List | Glossary Off
Versions: 1 2 3 4 5 6 7 8 9 10 11 12 13 14 15 16 17 18 19 20 21 22 23 24 25 26 27 28 29 30 31 32 33 34 35 36 37 38 39 40 41 42 43 44 45 46 47 48 49 50

000
ASUS43 KFSD 200710
RWRSD

WEATHER ROUNDUP FOR SOUTH DAKOTA
NATIONAL WEATHER SERVICE SIOUX FALLS SD
200 AM CDT SUN APR 20 2014

NOTE: "FAIR" INDICATES FEW OR NO CLOUDS BELOW 12,000 FEET WITH NO
SIGNIFICANT WEATHER AND/OR OBSTRUCTIONS TO VISIBILITY.


SDZ001>005-009-010-012>017-200800-
NORTHWEST AND NORTH CENTRAL SOUTH DAKOTA

CITY           SKY/WX    TMP DP  RH WIND       PRES   REMARKS
BUFFALO          N/A     44  28  53 SE10      29.89F
FAITH            N/A     41  28  60 S13       29.97S
MOBRIDGE       CLEAR     40  29  64 NE5       29.97R
$$

SDZ012>016-024>037-041>051-057-063-072>074-200800-
SOUTHWEST AND SOUTH CENTRAL SOUTH DAKOTA

CITY           SKY/WX    TMP DP  RH WIND       PRES   REMARKS
RAPID CTY ARPT PTCLDY    46  28  49 S6        29.97F
PIERRE         CLEAR     39  27  62 CALM      29.99S
CUSTER         PTCLDY    37  27  67 N3        30.02F
ELLSWORTH AFB  PTCLDY    47  29  49 S9        29.96F
PHILIP         CLEAR     40  27  59 CALM      29.99R
PINE RIDGE     CLEAR     45  28  51 NW5       30.00F
SPEARFISH      FAIR      48  32  53 W5        29.96S
WINNER         FAIR      47  18  31 SE8       30.00F
$$

SDZ004>011-016>023-039-040-200800-
NORTHEAST SOUTH DAKOTA

CITY           SKY/WX    TMP DP  RH WIND       PRES   REMARKS
ABERDEEN       PTCLDY    43  36  76 NE9       30.01R
WATERTOWN      PTCLDY    44  31  60 CALM      30.00F
SISSETON         N/A     42  36  79 N12       30.03R
$$

SDZ017-020-022-023-036>040-048>070-200800-
SOUTHEAST SOUTH DAKOTA

CITY           SKY/WX    TMP DP  RH WIND       PRES   REMARKS
SIOUX FALLS    CLOUDY    53  41  63 E5        30.01S
HURON          PTCLDY    43  33  68 CALM      29.99S
CHAMBERLAIN      N/A     49  24  37 CALM      30.01R
MITCHELL       PTCLDY    45  32  60 CALM      30.00S
YANKTON        PTCLDY    54  36  50 N7        30.00S
$$

ABBREVIATIONS USED IN REMARKS
   TC - TEMPERATURE IN CELSIUS
  WCI - WIND CHILL INDEX
   HX - HEAT INDEX
  VSB - VISIBILITY




USA.gov is the U.S. government's official web portal to all federal, state and local government web resources and services.